Find Starlink 37214

NORAD ID: 68345 Int'l Des: 2026-059 Owner: SPXS Country: US Constellation: starlink operational
LEOCIRCULAR

Live Position

Loading 3D Globe...

About Starlink 37214

Description loading...

Upcoming Passes

Passes for default location (London). Set your location on the main map for personalized predictions.

Altitude History

Loading altitude history...

Two-Line Element Set

1 68345U 26059AA 26112.25001157 -.00005077 00000-0 -83262-4 0 9997
2 68345 53.1593 145.9109 0001342 90.7082 325.3071 15.49314303 6043
Epoch: Apr 22, 2026 • Age: 12 hours

Current Status

Altitude 428.7 km
Velocity 7.65 km/s
Sub-Earth Point -30.56°S, 3.03°W
Launch Date Mar 22, 2026
Age 31 days
Type internet

Technical Details

Classification Payload
Mass 575.00 kg
Dry Mass 530.00 kg
Total Mass 575.00 kg
Length 0.30 m
Diameter 4.10 m
Span 29.00 m
Shape Box + pan
Manufacturer SPXS
Bus Type Starlink V2MO
Phase Status In Orbit
Owner/State SPXS/US

Most Searched